EW0294 Weather Reports


time (UTC)temp
C
wind
direction
speed
KPH
gust
KPH
rain 1hr
cm
rain 24hr
cm
rain mn
cm
humidity
%
barometer
mb
20260507074557 7 340 0.0 0.0 0.00 4.01 0.13 91 1004.3
20260507073056 7 340 0.0 1.6 0.00 4.01 0.13 91 1004.2
20260507071609 7 340 0.0 3.2 0.00 4.01 0.13 90 1004.3
20260507070055 7 340 0.0 9.7 0.00 4.01 0.13 89 1003.9
20260507064551 7 332 4.8 11.3 0.00 4.01 0.13 90 1003.8
20260507063048 7 355 0.0 8.0 0.00 4.01 0.13 92 1004.0
20260507061546 7 331 0.0 4.8 0.00 4.01 0.13 92 1004.0
20260507060045 7 328 1.6 8.0 0.00 4.01 0.13 92 1003.7
20260507054542 8 132 1.6 6.4 0.03 4.01 0.13 94 1003.6
20260507053109 8 29 0.0 1.6 0.03 4.01 0.13 94 1003.7
20260507051544 8 29 0.0 1.6 0.05 4.01 0.13 94 1003.8
20260507050043 8 29 0.0 1.6 0.13 4.01 0.13 94 1003.9
20260507044539 8 29 0.0 4.8 0.15 3.99 0.10 93 1003.6
20260507043038 8 360 3.2 8.0 0.23 3.99 0.10 93 1003.8
20260507041537 8 337 3.2 11.3 0.36 3.96 0.08 94 1003.9
20260507040032 8 349 3.2 11.3 0.30 3.89 0.00 94 1004.0
20260507034536 9 343 1.6 8.0 0.30 3.84 3.84 94 1004.0
20260507033038 9 333 0.0 9.7 0.28 3.76 3.76 94 1003.7
20260507031525 10 351 1.6 4.8 0.18 3.61 3.61 94 1003.7
20260507030027 10 268 0.0 4.8 0.18 3.58 3.58 94 1003.3
20260507024521 10 342 0.0 6.4 0.13 3.56 3.53 94 1003.0
20260507023026 11 292 0.0 3.2 0.08 3.51 3.48 94 1003.4
20260507021518 11 292 0.0 0.0 0.05 3.45 3.43 94 1003.0
20260507020021 11 292 0.0 1.6 0.13 3.43 3.40 94 1002.9
20260507014517 11 290 0.0 1.6 0.41 3.43 3.40 94 1002.9
20260507013014 11 259 0.0 4.8 0.71 3.43 3.40 94 1003.1
20260507011511 12 118 0.0 6.4 0.97 3.40 3.38 95 1003.1
20260507010021 12 317 0.0 3.2 0.86 3.28 3.25 95 1003.3
20260507004511 12 355 3.2 11.3 0.56 3.25 2.92 95 1003.4
20260507003011 13 157 0.0 0.0 0.25 2.92 2.64 95 1002.9
20260507001509 13 157 0.0 4.8 0.00 2.69 2.39 95 1002.8
20260507000012 13 188 0.0 8.0 0.00 2.69 2.39 95 1002.8
20260506234509 13 156 1.6 8.0 0.03 2.69 2.39 95 1002.7
20260506233008 13 136 3.2 8.0 0.03 2.69 2.39 95 1002.9
20260506231506 13 128 1.6 6.4 0.10 2.69 2.39 95 1002.9
20260506230005 13 128 0.0 3.2 0.13 2.69 2.39 95 1003.0
20260506224504 13 128 0.0 1.6 0.13 2.67 2.36 95 1003.2
20260506223003 13 128 0.0 4.8 0.15 2.67 2.36 95 1003.3
20260506221505 13 111 0.0 4.8 0.15 2.59 2.29 95 1003.5
20260506220002 13 208 0.0 0.0 0.15 2.57 2.26 95 1003.7
20260506214501 13 208 0.0 0.0 0.13 2.54 2.24 95 1003.8
20260506213001 13 208 0.0 0.0 0.10 2.51 2.21 94 1003.8
20260506211607 13 208 0.0 0.0 0.05 2.46 2.16 94 1003.9
20260506210059 13 208 0.0 8.0 0.05 2.41 2.11 94 1003.6
20260506204600 13 126 1.6 8.0 0.10 2.41 2.11 94 1003.4
20260506203057 13 127 3.2 8.0 0.33 2.41 2.11 94 1003.7
20260506201555 13 114 3.2 8.0 0.69 2.41 2.11 94 1003.8
20260506194557 13 138 1.6 6.4 1.40 2.31 2.01 94 1004.3
20260506193054 13 228 1.6 3.2 1.50 2.08 1.78 93 1004.6
20260506191604 13 228 0.0 6.4 1.17 1.73 1.42 93 1004.7
20260506190049 13 176 0.0 3.2 0.86 1.40 1.09 93 1004.7
20260506184551 13 176 0.0 4.8 0.41 0.91 0.61 93 1004.7
20260506183052 13 176 0.0 0.0 0.10 0.58 0.28 92 1004.8
20260506181555 13 176 0.0 0.0 0.08 0.56 0.25 92 1004.9
20260506180104 13 176 0.0 0.0 0.10 0.53 0.23 92 1005.1
20260506174543 13 176 0.0 4.8 0.08 0.51 0.20 91 1005.3
20260506173052 13 169 0.0 0.0 0.10 0.48 0.18 91 1005.5
20260506171542 13 169 0.0 4.8 0.13 0.48 0.18 91 1005.6
20260506170039 14 169 0.0 0.0 0.10 0.43 0.13 91 1005.6
20260506164538 13 169 0.0 0.0 0.10 0.43 0.13 90 1006.2
20260506163039 13 169 0.0 3.2 0.05 0.38 0.08 89 1006.7
20260506161537 14 169 0.0 1.6 0.03 0.36 0.05 89 1007.1
20260506160037 14 169 0.0 0.0 0.00 0.33 0.03 88 1007.2
20260506154536 13 169 0.0 6.4 0.00 0.33 0.03 87 1007.1
20260506153035 13 104 1.6 8.0 0.00 0.33 0.03 87 1007.0
20260506151534 13 131 0.0 9.7 0.00 0.33 0.03 89 1006.9
20260506150033 13 130 0.0 6.4 0.00 0.33 0.03 89 1006.9
20260506144544 13 130 1.6 8.0 0.00 0.33 0.03 89 1007.1
20260506143032 13 133 1.6 4.8 0.00 0.33 0.03 92 1007.1
20260506141535 13 133 0.0 4.8 0.00 0.33 0.03 93 1007.2
20260506140031 13 133 0.0 3.2 0.00 0.33 0.03 94 1007.3
20260506134530 13 133 0.0 1.6 0.00 0.33 0.03 95 1007.3
20260506133030 13 133 0.0 0.0 0.00 0.33 0.03 95 1007.5
20260506131529 12 133 0.0 0.0 0.00 0.33 0.03 95 1007.9
20260506130031 12 133 0.0 0.0 0.00 0.33 0.03 95 1008.2
20260506124528 12 133 0.0 0.0 0.00 0.33 0.03 95 1008.2
20260506123028 12 133 0.0 0.0 0.00 0.33 0.03 95 1008.1
20260506121529 12 133 0.0 0.0 0.00 0.33 0.03 95 1008.2
20260506120030 12 133 0.0 3.2 0.00 0.33 0.03 96 1008.2
20260506114527 12 133 1.6 3.2 0.00 0.33 0.03 96 1008.1
20260506113027 12 133 0.0 0.0 0.00 0.33 0.03 96 1008.2
20260506111525 12 133 0.0 6.4 0.00 0.33 0.03 95 1008.2
20260506110025 12 133 0.0 4.8 0.00 0.33 0.03 95 1008.3
20260506104527 12 133 0.0 0.0 0.00 0.33 0.03 95 1008.4
20260506103025 12 133 0.0 0.0 0.00 0.33 0.03 95 1008.5
20260506101523 12 133 0.0 0.0 0.00 0.33 0.03 95 1008.1
20260506100020 12 133 0.0 0.0 0.00 0.33 0.03 95 1008.0
20260506094519 12 133 0.0 0.0 0.00 0.33 0.03 95 1008.2
20260506093018 12 133 0.0 1.6 0.03 0.33 0.03 95 1007.9
20260506091518 12 133 0.0 0.0 0.03 0.33 0.03 95 1007.9
20260506090022 12 133 0.0 0.0 0.03 0.33 0.03 95 1007.7
20260506084531 12 133 0.0 0.0 0.03 0.33 0.03 95 1007.5
20260506083013 12 133 0.0 0.0 0.00 0.30 0.00 95 1007.8
20260506081516 13 133 0.0 0.0 0.00 0.30 0.00 95 1008.1